Location: Azul
(36.7830°S, 59.8500°W)
Time: 09:52:17
(UTC-03:00)

ISS - Pass Details

Date: 10 December 2017
Orbit: 402 x 406 km, 51.6° (Epoch: 16 December)

Event Time Altitude Azimuth Distance (km) Brightness Sun altitude
Exits shadow 03:18:59 20° 227° (SW) 1,032 -1.7 -21.0°
Maximum altitude 03:19:40 21° 209° (SSW) 993 -1.6 -20.9°
Drops below altitude 10° 03:22:17 10° 158° (SSE) 1,487 0.1 -20.6°
Sets 03:24:44 0° 140° (SE) 2,354 1.7 -20.3°
